Showing default

FLOCK 4G 3, 62639

Orbit data source: Space-Track

FLOCK 4G 3, 62639 is a payload satellite owned by Planet (US) in SSO that was launched on Tue, 14 Jan 2025 UTC via an FALCON 9 launch vehicle from the Air Force Western Test Range (AFWTR). Payload-class satellites include a variety of spacecraft equipped with specific instruments for various scientific and technological missions. These include communications satellites like Starlink; space stations such as the ISS; scientific satellites like the Hubble; Earth observation satellites from companies like Planet Labs, Umbra, and HawkEye 360; GPS; miniature CubeSats for education and research; and military/defense satellites.

Loading next visibility...
Identifier
62639, 2025-009AG
Orbit
SSO
Country
Flag of USUS
Related business
Manufacturer
Planet
Mission
Operational Commercial Imaging
Bus & Motor
CUBESAT 3U, Unknown motor
Mass
5.7 kg wet, 5.7 kg dry
Launch date (UTC)
2025-01-14 (10 months ago)
Launch vehicle
FALCON 9
Launch site
Air Force Western Test Range (AFWTR)
Object type
Payload
Rocket body
Debris
Shape & HBR
Box + 2 Pan, 1.0 m
Radar Cross Section
0.072 m², Medium (>0.1 m² and < 1m²)

Expand to show TLE details & history
Last TLE update: 18 hours ago

TLE from 18 hours ago
0 FLOCK 4G 3
1 62639U 25009AG  25308.65643364  .00011821  00000-0  49244-3 0  9996
2 62639  97.4241  27.3257 0003304  39.6783 320.4696 15.23870004 44645
Epoch: 2025-11-04T15:45Z
TLE epoch observation values (Epoch: 2025-11-04T15:45:15.866Z)
Latitude
0.00004°
Longitude
106.86926°
Altitude
495.524 km
Speed
7.618 km/s
True Right ascension
01h 49m 18s
True Declination
0° 00' 00"
Sunlit
Object was in full shadow at epoch
Visualization orbit readout
Latitude
Unknown
Longitude
Unknown
Altitude
Unknown
Speed
Unknown
Apparent Right ascension
Unknown
Apparent Declination
Unknown
Sunlit
N/A
Visualization observer readout
Local Sidereal Time
06:01:02
Azimuth
Unknown
Elevation
Unknown
Doppler factor
Unknown
Orbital elements
Apogee altitude
493.412 km
Perigee altitude
488.873 km
Semi-major axis
6,869.279 km
Eccentricity
0.00033
Inclination
97.4241°
RAAN
27.3257°
Arg. of periapsis
39.6783°
True anomaly
320.44549°
Mean anomaly
320.4696°
Eccentric anomaly
320.45755°
Mean motion
3.81221 °/min
Orbital period
94.43 mins
BSTAR
0.00049244
Loading maneuver chart data...
Computing Atmospheric mass density...
Loading historical data...
Loading historical data...
Loading historical data...
Loading historical data...
Loading historical data...
Loading historical data...
Loading historical data...

Documentation

Showing up to 5 results
|